Weather History for Nassau, Bahamas

Change the Weather History Date:

Sunday, February 17, 2013

  Actual Average Record
Temperature  
Mean Temperature 68 °F -  
Max Temperature 73 °F 79 °F 86 °F (2003)
Min Temperature 62 °F 63 °F 55 °F (2005)
Cooling Degree Days 2    
Growing Degree Days 18 (Base 50)    
Moisture  
Dew Point 48 °F    
Average Humidity 53    
Maximum Humidity 68    
Minimum Humidity 36    
Precipitation  
Precipitation 0.00 in 0.05 in - ()
Sea Level Pressure  
Sea Level Pressure 30.15 in    
Wind  
Wind Speed 13 mph ()    
Max Wind Speed 21 mph    
Max Gust Speed -    
Visibility 6.8 miles    
Events      
Averages and records for this station are not official NWS values.
T = Trace of Precipitation, MM = Missing Value Source: Averaged Metar Reports

Daily Weather History Graph

Daily Weather History Graph

Search for Another Location

Airport:

Trip Planner

Search our weather history database for the weather conditions in past years. The results will help you decide how hot, cold, wet, or windy it might be!

Date:

Astronomy

Feb. 17, 2013 Rise Set
Actual Time 6:42 AM EST 6:05 PM EST
Civil Twilight 6:19 AM EST 6:28 PM EST
Nautical Twilight 5:52 AM EST 6:55 PM EST
Astronomical Twilight 5:25 AM EST 7:22 PM EST
Moon 11:22 AM EST (2/17) 12:12 AM EST (2/17)
Length of Visible Light 12h 09m
Length of Day
11h 22m
Waxing Crescent, 49% of the Moon is Illuminated
Feb 17
Waxing Crescent
Feb 17
First Quarter
Feb 25
Full
Mar 4
Last Quarter
Mar 11
New

Hourly Weather History & Observations

Time (EST) Temp. Dew Point Humidity Pressure Visibility Wind Dir Wind Speed Gust Speed Precip Events Conditions
12:00 AM 69.8 °F 55.4 °F 60% 30.01 in 6.2 mi West 18.4 mph - N/A   Overcast
1:00 AM 70 °F 53 °F 45% 30.02 in 9 mi West 15.0 mph - -   Partly Cloudy
1:00 AM 69.8 °F 53.6 °F 56% 30.01 in 6.2 mi West 15.0 mph - N/A   Mostly Cloudy
2:00 AM 66.2 °F 55.4 °F 68% 30.01 in 6.2 mi West 19.6 mph - N/A   Scattered Clouds
3:00 AM 64.4 °F 53.6 °F 68% 30.02 in 6.2 mi NW 18.4 mph - N/A   Scattered Clouds
5:00 AM 62.6 °F 46.4 °F 55% 30.05 in 6.2 mi WNW 19.6 mph - N/A   Scattered Clouds
6:00 AM 62.6 °F 48.2 °F 59% 30.08 in 6.2 mi West 18.4 mph - N/A   Scattered Clouds
7:00 AM 63 °F 48 °F 47% 30.11 in 9 mi NW 17.3 mph - -   Mostly Cloudy
7:00 AM 62.6 °F 48.2 °F 59% 30.10 in 6.2 mi NW 17.3 mph - N/A   Mostly Cloudy
8:00 AM 62.6 °F 46.4 °F 55% 30.13 in 6.2 mi WNW 12.7 mph - N/A   Mostly Cloudy
9:00 AM 66.2 °F 46.4 °F 49% 30.18 in 6.2 mi WNW 20.7 mph - N/A   Mostly Cloudy
12:00 PM 64.4 °F 46.4 °F 52% 30.19 in 6.2 mi WNW 10.4 mph - N/A   Scattered Clouds
1:00 PM 67 °F 46 °F 36% 30.19 in 9 mi West 12.7 mph - -  
2:00 PM 64.4 °F 48.2 °F 56% 30.16 in 6.2 mi WNW 15.0 mph - N/A   Mostly Cloudy
3:00 PM 64.4 °F 46.4 °F 52% 30.17 in 6.2 mi NNW 15.0 mph - N/A   Mostly Cloudy
4:00 PM 65 °F 45 °F 37% 30.18 in 9 mi North 10.4 mph - -   Mostly Cloudy
4:00 PM 64.4 °F 44.6 °F 49% 30.18 in 6.2 mi North 10.4 mph - N/A   Mostly Cloudy
5:00 PM 64.4 °F 46.4 °F 52% 30.20 in 6.2 mi NNW 13.8 mph - N/A   Mostly Cloudy
6:00 PM 62.6 °F 46.4 °F 55% 30.21 in 6.2 mi NW 10.4 mph - N/A   Mostly Cloudy
7:00 PM 63 °F 46 °F 42% 30.22 in 9 mi NW 11.5 mph - -   Mostly Cloudy
7:00 PM 62.6 °F 46.4 °F 55% 30.22 in 6.2 mi NW 11.5 mph - N/A   Mostly Cloudy
8:00 PM 62.6 °F 46.4 °F 55% 30.23 in 6.2 mi NNW 11.5 mph - N/A   Mostly Cloudy
9:00 PM 62.6 °F 46.4 °F 55% 30.24 in 6.2 mi North 9.2 mph - N/A   Mostly Cloudy
10:00 PM 63 °F 46 °F 42% 30.25 in 9 mi North 4.6 mph - -   Mostly Cloudy
10:00 PM 62.6 °F 46.4 °F 55% 30.25 in 6.2 mi North 4.6 mph - N/A   Mostly Cloudy
11:00 PM 62.6 °F 46.4 °F 55% 30.25 in 6.2 mi North 6.9 mph - N/A   Mostly Cloudy